Regional Weather Roundup
Issued by NWS

Home | Current Version | Previous Version | Graphics & Text | Print | Product List | Glossary On
Versions: 1 2 3 4 5 6 7 8 9 10 11 12 13 14 15 16 17 18 19 20 21 22 23 24 25 26 27 28 29 30 31 32 33 34 35 36 37 38 39 40 41 42 43 44 45 46 47 48 49 50
000
ASUS43 KFSD 261810
RWRSD

WEATHER ROUNDUP FOR SOUTH DAKOTA
NATIONAL WEATHER SERVICE SIOUX FALLS SD
100 PM CDT FRI AUG 26 2016

NOTE: "FAIR" INDICATES FEW OR NO CLOUDS BELOW 12,000 FEET WITH NO
SIGNIFICANT WEATHER AND/OR OBSTRUCTIONS TO VISIBILITY.


SDZ001>005-009-010-012>017-261900-
NORTHWEST AND NORTH CENTRAL SOUTH DAKOTA

CITY           SKY/WX    TMP DP  RH WIND       PRES   REMARKS
BUFFALO          N/A     56  50  80 NW35G45   30.01S SQUALL
FAITH            N/A     62  56  80 SE16      30.10F
MOBRIDGE       CLOUDY    60  53  77 S13       30.11F
$$

SDZ012>016-024>037-041>051-057-063-072>074-261900-
SOUTHWEST AND SOUTH CENTRAL SOUTH DAKOTA

CITY           SKY/WX    TMP DP  RH WIND       PRES   REMARKS
RAPID CTY ARPT CLOUDY    58  52  80 S8        30.12F
PIERRE         LGT RAIN  58  57  97 E10       30.13F FOG
CUSTER         CLOUDY    50  47  89 E5        30.15F
ELLSWORTH AFB  PTSUNNY   61  54  77 S10       30.10
PHILIP         CLOUDY    58  56  93 SE10      30.11F
PINE RIDGE     CLOUDY    59  58  96 S12       30.11F
WINNER         MOCLDY    70  55  59 N13       30.14F
$$

SDZ004>011-016>023-039-040-261900-
NORTHEAST SOUTH DAKOTA

CITY           SKY/WX    TMP DP  RH WIND       PRES   REMARKS
ABERDEEN       CLOUDY    69  51  52 SW9       30.15S
WATERTOWN      CLOUDY    69  51  52 MISG      30.16S
BROOKINGS      CLOUDY    69  53  56 S8        30.15F
SISSETON         N/A     73  52  47 S9        30.13R
$$

SDZ017-020-022-023-036>040-048>070-261900-
SOUTHEAST SOUTH DAKOTA

CITY           SKY/WX    TMP DP  RH WIND       PRES   REMARKS
SIOUX FALLS    CLOUDY    74  57  55 S10       30.14F
HURON          CLOUDY    68  51  54 SW7       30.16S
CHAMBERLAIN    CLOUDY    69  56  62 N10       30.15F
MITCHELL       MOSUNNY   71  53  52 SE7       30.15F
YANKTON        MOSUNNY   72  55  56 SE6       30.12F
$$

ABBREVIATIONS USED IN REMARKS
   TC - TEMPERATURE IN CELSIUS
  WCI - WIND CHILL INDEX
   HX - HEAT INDEX
  VSB - VISIBILITY





USA.gov is the U.S. government's official web portal to all federal, state and local government web resources and services.